[[{"header":{"parameterUnit":"m.s-1","parameterCategory":1,"la1":30.2992,"la2":30.254,"lo1":-89.0895,"lo2":-89.0443,"dy":0.0025,"dx":0.0025,"nx":19,"ny":19,"refTime":"2026-05-03T21:00:00:Z","depth":0,"parameterNumber":2,"parameterNumberName":"U-component_of_WINDS"},"data":[0,0,0,-0.416,-0.4161,-0.4227,-0.4227,-0.4307,-0.4307,0,0,0,0,0,0,0,0,0,0,0,-0.4136,-0.4137,-0.416,-0.4162,-0.4227,-0.4227,-0.4307,-0.4307,0,0,0,0,0,0,0,0,0,0,0,-0.4136,-0.4137,-0.4137,-0.4162,-0.4227,-0.4227,-0.4306,-0.4259,0,0,0,0,0,0,0,0,0,0,-0.4196,-0.4169,-0.4136,-0.4137,-0.4162,-0.4227,-0.4227,-0.4257,-0.4262,-0.4275,0,-0.4283,0,-0.4296,-0.4312,-0.4313,0,0,0,-0.4165,-0.4165,-0.4187,-0.4137,-0.4163,-0.4227,-0.4199,-0.426,-0.4266,-0.4281,-0.4284,-0.4287,-0.4298,-0.4313,-0.4313,-0.4371,-0.4371,0,0,-0.4162,-0.4146,-0.4183,-0.419,-0.4178,-0.4196,-0.4201,-0.4263,-0.4266,-0.4285,-0.4289,-0.4299,-0.4313,-0.4314,-0.4371,-0.4371,0,0,0,-0.4149,-0.4143,-0.4164,-0.4187,-0.4199,-0.4198,-0.4203,-0.4263,-0.4271,-0.429,-0.43,-0.4314,-0.4315,-0.4371,-0.4371,-0.4361,0,0,0,-0.4147,-0.4136,-0.4162,-0.4153,-0.4197,-0.4232,-0.4201,-0.4267,-0.4274,-0.43,-0.4314,-0.4315,-0.4371,-0.4371,-0.4361,-0.4358,0,0,0,-0.4134,-0.4134,-0.4142,-0.4152,-0.4179,-0.4231,-0.4242,-0.4269,-0.428,-0.4313,-0.4315,-0.4371,-0.4371,-0.4361,-0.4359,-0.437,0,0,0,-0.4115,-0.4132,-0.4142,-0.4164,-0.4179,-0.4223,-0.4242,-0.4277,-0.4303,-0.4314,-0.4371,-0.4371,-0.4361,-0.4359,-0.437,-0.4376,-0.4378,0,0,-0.4128,-0.4133,-0.4147,-0.4158,-0.4197,-0.4215,-0.4253,-0.4292,-0.431,-0.435,-0.4352,-0.4361,-0.4359,-0.437,-0.4389,-0.4389,0,0,0,-0.4146,-0.4157,-0.417,-0.4194,-0.4224,-0.4251,-0.4286,-0.4301,-0.4336,-0.4327,-0.4368,-0.4367,-0.4374,-0.4378,-0.4379,-0.4387,-0.4372,-0.4372,-0.4372,-0.4141,-0.4163,-0.4189,-0.4219,-0.4242,-0.4279,-0.4301,-0.4327,-0.4342,-0.4352,-0.4364,-0.4373,-0.4377,-0.4377,-0.4385,-0.4369,-0.4369,-0.4369,-0.4369,-0.4162,-0.418,-0.4201,-0.4233,-0.4257,-0.4285,-0.4322,-0.4332,-0.4363,-0.4365,-0.4373,-0.4374,-0.4377,-0.4385,-0.4368,-0.4368,-0.4368,-0.4368,-0.4369,-0.4161,-0.4174,-0.4191,-0.423,-0.4257,-0.4287,-0.4316,-0.4337,-0.4356,-0.4364,-0.438,-0.438,-0.4383,-0.437,-0.437,-0.437,-0.437,-0.437,-0.437,-0.4154,-0.4174,-0.4195,-0.4229,-0.4248,-0.4276,-0.4314,-0.4334,-0.4361,-0.4374,-0.4375,-0.439,-0.4373,-0.4369,-0.437,-0.437,-0.437,-0.437,-0.437,-0.4167,-0.4167,-0.42,-0.4219,-0.4262,-0.4288,-0.4315,-0.4354,-0.4373,-0.4387,-0.4401,-0.4385,-0.4392,-0.4392,-0.4389,-0.4395,-0.4395,-0.4395,-0.4395,-0.4166,-0.4172,-0.4211,-0.424,-0.4271,-0.4299,-0.4337,-0.4367,-0.4399,-0.4413,-0.4416,-0.4413,-0.4411,-0.442,-0.4419,-0.4416,-0.4429,-0.4429,-0.4429,-0.4176,-0.4186,-0.4213,-0.4244,-0.428,-0.431,-0.4347,-0.4382,-0.4418,-0.4431,-0.4425,-0.4424,-0.442,-0.4417,-0.4429,-0.4427,-0.4423,0,0]},{"header":{"parameterUnit":"m.s-1","parameterCategory":1,"la1":30.2992,"la2":30.254,"lo1":-89.0895,"lo2":-89.0443,"dy":0.0025,"dx":0.0025,"nx":19,"ny":19,"refTime":"2026-05-03T21:00:00:Z","depth":0,"parameterNumber":3,"parameterNumberName":"V-component_of_WINDS"},"data":[0,0,0,5.5861,5.5864,5.601,5.6011,5.6203,5.6205,0,0,0,0,0,0,0,0,0,0,0,5.5826,5.5827,5.5861,5.5865,5.601,5.6011,5.6202,5.6205,0,0,0,0,0,0,0,0,0,0,0,5.5825,5.5827,5.5829,5.5865,5.601,5.6011,5.6202,5.6089,0,0,0,0,0,0,0,0,0,0,5.5946,5.5923,5.5827,5.5829,5.5866,5.601,5.6011,5.6083,5.6096,5.6141,0,5.6186,0,5.6199,5.6218,5.6219,0,0,0,5.5858,5.5912,5.5945,5.5829,5.5867,5.601,5.5942,5.609,5.6105,5.6157,5.6189,5.6196,5.6202,5.622,5.6221,5.6506,5.6507,0,0,5.585,5.5856,5.5935,5.5954,5.5937,5.5938,5.5947,5.6099,5.6132,5.6189,5.62,5.6205,5.6221,5.6222,5.6504,5.6506,0,0,0,5.5831,5.585,5.5879,5.5947,5.5973,5.5942,5.5953,5.6125,5.6134,5.6202,5.6207,5.6222,5.6225,5.6503,5.6505,5.6591,0,0,0,5.5826,5.584,5.5875,5.5881,5.597,5.6052,5.5976,5.6124,5.6141,5.6206,5.6222,5.6227,5.6501,5.6504,5.6585,5.663,0,0,0,5.5813,5.5838,5.5862,5.5881,5.5944,5.6049,5.6067,5.6127,5.6144,5.6219,5.6227,5.65,5.6503,5.6579,5.6621,5.6703,0,0,0,5.5801,5.5938,5.5864,5.6018,5.5943,5.6103,5.6066,5.6185,5.6259,5.6223,5.6501,5.6505,5.6577,5.6615,5.6697,5.6772,5.6805,0,0,5.5977,5.596,5.6049,5.5987,5.6162,5.608,5.6267,5.6329,5.633,5.6446,5.6453,5.6587,5.662,5.6702,5.6992,5.7018,0,0,0,5.6107,5.6171,5.6216,5.6288,5.634,5.6386,5.6419,5.6441,5.6539,5.6392,5.6641,5.666,5.6708,5.6743,5.6765,5.6803,5.6522,5.6522,5.6522,5.6363,5.6357,5.6503,5.6514,5.6584,5.6615,5.6669,5.6703,5.6678,5.6736,5.6769,5.6946,5.6988,5.7004,5.7045,5.6811,5.6811,5.6812,5.6812,5.6617,5.6704,5.6665,5.6793,5.6783,5.6889,5.6923,5.69,5.6994,5.6922,5.6963,5.6882,5.7033,5.7068,5.6818,5.6817,5.6816,5.6816,5.6815,5.6781,5.6821,5.6847,5.6947,5.7024,5.7028,5.712,5.7109,5.7099,5.714,5.7171,5.717,5.7163,5.7156,5.7157,5.7158,5.7158,5.7159,5.7159,5.694,5.6966,5.7046,5.7109,5.7151,5.7204,5.7234,5.7274,5.7315,5.7299,5.7299,5.7263,5.7051,5.6996,5.7168,5.7167,5.7165,5.7165,5.7164,5.7194,5.7134,5.7257,5.73,5.7369,5.7443,5.7428,5.7509,5.754,5.7584,5.754,5.7386,5.7367,5.7349,5.7302,5.7544,5.7544,5.7544,5.7544,5.733,5.7319,5.744,5.7507,5.7571,5.7568,5.7701,5.7724,5.7738,5.7755,5.7719,5.7658,5.764,5.7631,5.7607,5.7563,5.7866,5.7866,5.7866,5.7483,5.7478,5.7595,5.7609,5.7662,5.7706,5.783,5.7904,5.7907,5.7879,5.7767,5.7753,5.7655,5.7624,5.7591,5.7555,5.7474,0,0]}]]